QIANFAN-12 (60390 NORAD) Tracking and Keplerian Element Data

This shows tracking and keplerian element data for the satellite.

Feedback or suggestion? Click here.




ElementValue
Catalog60390
NameQIANFAN-12
Epoch Orbit957
Epoch Day286.53246763
Epoch Year2024
RAAN343.4446
Inclination88.9942
Eccentricity0.001546
Argument of Perigee17.1827
Mean Anonmoly342.9886
Mean Motion14.25127233
Decay Rate2.055E-05
L11 60390U 24140M 24286.53246763 .00002055 00000+0 86929-3 0 9995
L22 60390 88.9942 343.4446 0015460 17.1827 342.9886 14.25127233 9571



Live tracking and technical data element details for QIANFAN-12 (NORAD 60390). QIANFAN-12 can be tracked NOW for your location showing map with azimuth and elevation plus other details from your city location.







IsCatalogInMostPopularTable: catalog: 60390, numindb: 5
Update: records affected: 1



GetName: 60390 QIANFAN-12

Hit Count: updated at: Wed, 04 Dec 2024 18:28:10 GMT